Location: Alafon
(8.4500°N, 4.2333°E)
Time: 01:52:09
(UTC+00:00)

ARIANE 5 R/B - Pass Details

Date: 05 July 2020
Orbit: 660 x 35804 km, 4.4° (Epoch: 06 August)

Event Time Altitude Azimuth Distance (km) Brightness Sun altitude
Rises 19:12:22 0° 260° (W) 3,703 7.4 -15.8°
Reaches altitude 10° 19:15:23 10° 249° (WSW) 2,233 6.0 -16.5°
Maximum altitude 19:19:00 31° 183° (S) 1,156 3.7 -17.3°
Enters shadow 19:20:09 26° 150° (SSE) 1,338 3.8 -17.5°
